Location: Beccas
(43.4309°N, 0.1528°E)
Time: 07:45:36
(UTC+00:00)

Cosmos 1703 - Pass Details

Date: 23 May 2022
Orbit: 518 x 535 km, 82.5° (Epoch: 06 July)

Event Time Altitude Azimuth Distance (km) Brightness Sun altitude
Exits shadow 02:10:48 12° 141° (SE) 1,651 5.6 -18.9°
Maximum altitude 02:13:37 25° 89° (E) 1,116 5.2 -18.7°
Drops below altitude 10° 02:16:52 10° 34° (NE) 1,797 7.2 -18.3°
Sets 02:19:17 0° 21° (NNE) 2,692 8.3 -18.1°
